Content
SEND FEEDBACK

Daily
Averages
Monthly
Summary
United States of America

AMY, COLORADO


Home > North America > United States > Colorado
Elevation: 5240 feet     Latitude: 38 53N     Longitude: 103 39W

WEATHER
 
SELECT A DAY
Number of Records: 192,012;   Date Range: 1/1/95 - 9/18/14
 
SHARE

PRINT THIS DATA

[ ← Previous Day ]
WEATHER ALMANAC - JANUARY 3, 2013
[ Next Day → ]
[ °C ]   °F
Weather ElementAverageHighLow
Temperature10.5 °F30 °F (12:55 pm)-2.9 °F (11:55 pm)
Dewpoint0.5 °F10 °F (11:55 am)-8 °F (11:55 pm)
Humidity66.5 %84 % (5:55 pm)40 % (12:55 pm)
Barometer30.43 in30.51 in (8:55 am)30.33 in (2:55 pm)
Wind Speed5.8 mph12.7 mph (6:55 am)
Weather ElementAverage
Visibility10 mi
Wind DirectionW (270 °)

Weather ElementTotal
Precipitation---
Heating Degree Days51.5 (Base 65)
Averaged from 23 records on January 3, 2013
WEATHER CONDITIONS BREAKOUT
WIND DIRECTION BREAKOUT
WEATHER BY HOUR - JANUARY 3, 2013
[ °C ]   °F
Local TimeTemperatureDewpointHumidityBarometerVisibilityWind DirectionWind SpeedGust SpeedPrecipitationEventsConditions
1:55 AM3.9 °F-2.0 °F76 %30.44 in10.0 miCalmClear
2:55 AM5.0 °F0.0 °F80 %30.45 in10.0 miWest (270°)8.1 mphClear
3:55 AM1.9 °F-2.0 °F83 %30.46 in10.0 miNorth (350°)6.9 mphClear
4:55 AM3.9 °F-0.9 °F80 %30.47 in10.0 miWest (280°)5.8 mphClear
5:55 AM6.1 °F-0.9 °F73 %30.48 in10.0 miWNW (290°)11.5 mphClear
6:55 AM6.1 °F-2.0 °F69 %30.48 in10.0 miWest (280°)12.7 mphClear
7:55 AM6.1 °F-2.0 °F69 %30.50 in10.0 miWNW (290°)8.1 mphClear
8:55 AM10.9 °F0.0 °F61 %30.51 in10.0 miCalmClear
9:55 AM16.0 °F3.9 °F59 %30.48 in10.0 miNW (320°)3.5 mphClear
10:55 AM23.0 °F9.0 °F55 %30.43 in10.0 miWest (280°)5.8 mphClear
11:55 AM28.0 °F10.0 °F47 %30.37 in10.0 miWest (280°)10.4 mphClear
12:55 PM30.0 °F8.1 °F40 %30.34 in10.0 miWNW (290°)9.2 mphClear
1:55 PM30.0 °F8.1 °F40 %30.34 in10.0 miWest (280°)8.1 mphClear
2:55 PM30.0 °F9.0 °F41 %30.33 in10.0 miWNW (290°)5.8 mphClear
3:55 PM27.0 °F8.1 °F45 %30.36 in10.0 miNW (310°)4.6 mphClear
4:55 PM16.0 °F3.0 °F57 %30.41 in10.0 miCalmClear
5:55 PM3.0 °F-0.9 °F84 %30.46 in10.0 miNorth (350°)4.6 mphClear
6:55 PM1.0 °F-4.0 °F79 %30.47 in10.0 miNorth (350°)5.8 mphClear
7:55 PM-0.9 °F-6.0 °F79 %30.48 in10.0 miNorth (350°)3.5 mphClear
8:55 PM-2.0 °F-7.1 °F79 %30.46 in10.0 miNorth (350°)6.9 mphClear
9:55 PM-0.9 °F-6.0 °F79 %30.44 in10.0 miNNW (330°)4.6 mphClear
10:55 PM1.0 °F-5.1 °F75 %30.40 in10.0 miNorth (360°)4.6 mphClear
11:55 PM-2.9 °F-8.0 °F79 %30.39 in10.0 miNW (310°)3.5 mphClear
Hourly data recorded from KLIC, located miles away from Amy, Colorado







STORIES FROM OUR PARTNERS